Home > Time Zones > World Clock > Weather > Spain > Ceuta > Past weeks

Flag for Spain Weather past 2 weeks in Ceuta, Ceuta, Spain

Now
75 °F

Passing clouds.


Feels Like: 77 °F
Forecast: 69 / 76 °F
Wind: 7 mph from Southwest

Location: Gibraltar Airport

Current Time: Jul 31, 2014 at 12:09:59 PM

Latest Report: Jul 31, 2014 at 10:50 AM


Visibility: N/A

Pressure: 30.01 "Hg

Humidity: 61%

Dew point: 61 °F

Location of CeutaLocation

Historic Weather in Ceuta — Graph

°F

Ceuta temperature yesterday

Maximum temperature yesterday: 79 °F (at 3:50 PM)
Minimum temperature yesterday: 66 °F (at 8:50 AM)
Average temperature yesterday: 72 °F

Past Weeks' High & Low Weather Summary

 TemperatureHumidityPressure
High84 °F (Jul 18, 2:50 PM)100% (Jul 22, 5:50 AM)30.09 "Hg (Jul 22, 5:50 AM)
Low64 °F (Jul 23, 6:50 AM)42% (Jul 20, 6:50 PM)29.80 "Hg (Jul 24, 4:50 PM)
Average74 °F70%29.96 "Hg
* Reported Jul 16 10:50 AM — Jul 31 10:50 AM, Ceuta, Weather by CustomWeather, © 2014

Note: Actual official high and low records may vary slightly from our data, if they occured in-between our weather recording intervals... More about our weather records

Advertising

Ceuta weather history for previous 24 hours

 ConditionsComfort  
Time TempWeatherWind HumidityBarometerVisibility
10:50 AM
Jul 31
75 °FPassing clouds.7 mph61%30.01 "HgN/A
9:50 AM73 °FPassing clouds.10 mph69%30.01 "HgN/A
8:50 AM70 °FPassing clouds.9 mph83%30.01 "HgN/A
7:50 AM68 °FPassing clouds.10 mph88%29.98 "HgN/A
6:50 AM68 °FPassing clouds.8 mph88%29.98 "HgN/A
5:50 AM70 °FClear.9 mph83%29.98 "Hg6 mi
4:50 AM70 °FClear.10 mph83%29.98 "HgN/A
3:50 AM72 °FClear.10 mph78%29.95 "HgN/A
2:50 AM72 °FClear.10 mph78%29.95 "HgN/A
1:50 AM73 °FClear.8 mph78%29.95 "HgN/A
12:50 AM72 °FClear.3 mph88%29.95 "HgN/A
11:50 PM
Jul 30
72 °FClear.3 mph88%29.95 "HgN/A
10:50 PM72 °FClear.3 mph88%29.95 "Hg6 mi
9:50 PM73 °FSunny.3 mph83%29.92 "Hg5 mi
8:50 PM73 °FSunny.5 mph83%29.92 "Hg5 mi
7:50 PM75 °FSunny.7 mph78%29.92 "Hg5 mi
6:50 PM77 °FSunny.7 mph79%29.92 "Hg4 mi
5:50 PM75 °FSunny.7 mph83%29.92 "Hg4 mi
4:50 PM77 °FSunny.8 mph79%29.95 "Hg4 mi
3:50 PM79 °FHaze.9 mph74%29.95 "Hg4 mi
2:50 PM77 °FHaze.9 mph79%29.95 "Hg4 mi
1:50 PM75 °FHaze.10 mph83%29.95 "Hg4 mi
12:50 PM73 °FHaze.7 mph78%29.98 "Hg6 mi
Weather by CustomWeather, © 2014

See weather overviewHow to use our weather pages